Voltar ao catálogo

DASH/VEP 3

AtivoCiênciaGTO
NORAD 27368·PAYLOAD·🇯🇵 Japan

Lançado Feb 4, 2002 de Tanegashima Space Center

Loading…

TLE

EnvelhecendoSource: Space-Track

Época: Sep 14, 2026, 09:34 UTC

1 27368U 02003B   26257.39908210  .00000490  00000-0  21299-2 0  9993
2 27368  28.5676 216.9069 7128706   0.3588 359.7846  2.37171895208140

Acompanhe DASH/VEP 3 em tempo real com AllMySat

Download on the App Store